Flag for Argentina Weather past 2 weeks in Tucumán, Tucumán, Argentina

Now
45 °F

Passing clouds.


Feels Like: 41 °F
Forecast: 38 / 53 °F
Wind: 6 mph from Southwest

Location: Tucuman Aerodrome

Current Time: Jul 23, 2014 at 11:54:29 PM

Latest Report: Jul 23, 2014 at 11:00 PM


Visibility: 6 mi

Pressure: 30.33 "Hg

Humidity: 76%

Dew point: 37 °F

Location of TucumánLocation

Historic Weather in Tucumán — Graph

°F

Tucumán temperature yesterday

Maximum temperature yesterday: 68 °F (at 12:00 PM)
Minimum temperature yesterday: 50 °F (at 6:00 AM)
Average temperature yesterday: 57 °F

Past Weeks' High & Low Weather Summary

 TemperatureHumidityPressure
High75 °F (Jul 14, 4:00 PM)94% (Jul 14, 12:00 AM)30.42 "Hg (Jul 14, 12:00 AM)
Low41 °F (Jul 9, 7:00 AM)38% (Jul 11, 5:00 PM)29.71 "Hg (Jul 14, 4:00 PM)
Average58 °F71%30.06 "Hg
* Reported Jul 8 9:00 PM — Jul 23 9:00 PM, Tucumán, Weather by CustomWeather, © 2014

Note: Actual official high and low records may vary slightly from our data, if they occured in-between our weather recording intervals... More about our weather records

Advertising

Tucumán weather history for previous 24 hours

 ConditionsComfort  
Time TempWeatherWind HumidityBarometerVisibility
9:00 PM
Jul 23
48 °FPassing clouds.7 mph66%30.27 "Hg6 mi
8:00 PM50 °FPassing clouds.7 mph62%30.21 "Hg6 mi
7:00 PM54 °FPartly cloudy.7 mph54%30.18 "Hg6 mi
6:00 PM55 °FPassing clouds.7 mph55%30.12 "HgN/A
5:00 PM55 °FScattered clouds.7 mph55%30.12 "HgN/A
4:00 PM55 °FBroken clouds.12 mph59%30.09 "Hg6 mi
3:00 PM54 °FScattered clouds.12 mph58%30.09 "Hg6 mi
2:00 PM52 °FBroken clouds.12 mph67%30.12 "Hg6 mi
1:00 PM52 °FPartly sunny.14 mph67%30.15 "Hg6 mi
12:00 PM50 °FPartly sunny.12 mph71%30.15 "Hg6 mi
11:00 AM50 °FOvercast.12 mph76%30.18 "Hg6 mi
10:00 AM50 °FClear.14 mph82%30.15 "Hg6 mi
8:00 AM50 °FOvercast.7 mph76%30.12 "Hg6 mi
7:00 AM48 °FMostly cloudy.5 mph82%30.09 "HgN/A
6:00 AM50 °FDrizzle. Mostly cloudy.12 mph76%30.09 "Hg4 mi
2:00 AM57 °FMostly cloudy.7 mph77%30.01 "HgN/A
1:00 AM59 °FMostly cloudy.9 mph72%30.01 "HgN/A
12:00 AM59 °FOvercast.9 mph77%29.98 "HgN/A
11:00 PM
Jul 22
61 °FOvercast.5 mph72%29.98 "Hg3 mi
Weather by CustomWeather, © 2014

See weather overviewHow to use our weather pages